THORAD AGENA D DEB, 4689

Orbit data source: Space-Track

THORAD AGENA D DEB, 4689 is space debris in SSO originally from a launch on Wed, 08 Apr 1970 UTC launched from the Air Force Western Test Range (AFWTR). Debris objects in space refer to the collection of defunct objects orbiting the Earth. Examples of debris include non-operational satellites, rocket bodies, and fragments generated from explosions, collisions, or faulty payload assembly.

Loading next visibility...
Identifier
4689, 1970-025BN
Orbit
SSO
Country
Flag of USUS
Related business
Manufacturer
Unknown
Mission
Spacecraft
Bus & Motor
Unknown
Mass
Unknown
Launch date (UTC)
1970-04-08 (56 years ago)
Launch vehicle
Unknown
Launch site
Air Force Western Test Range (AFWTR)
Object type
Payload
Rocket body
Debris
Shape & HBR
Unknown shape, 0.1 m
Radar Cross Section
Small (<0.1 m²)

Expand to show TLE details & history
Last TLE update: 18 hours ago

TLE from 18 hours ago
0 THORAD AGENA D DEB
1 04689U 70025BN  25349.30183711  .00000279  00000-0  45087-3 0  9993
2 04689  99.3651 187.6024 0069546 122.9206  49.7814 13.56030902745493
Epoch: 2025-12-15T07:14Z
TLE epoch observation values (Epoch: 2025-12-15T07:14:38.726Z)
Latitude
6.52314°
Longitude
175.81364°
Altitude
1,019.195 km
Speed
7.359 km/s
True Right ascension
00h 34m 42s
True Declination
6° 29' 09"
Sunlit
Object was in daylight at epoch
Visualization orbit readout
Latitude
Unknown
Longitude
Unknown
Altitude
Unknown
Speed
Unknown
Apparent Right ascension
Unknown
Apparent Declination
Unknown
Sunlit
N/A
Visualization observer readout
Local Sidereal Time
23:41:06
Azimuth
Unknown
Elevation
Unknown
Doppler factor
Unknown
Orbital elements
Apogee altitude
1,099.07 km
Perigee altitude
995.786 km
Semi-major axis
7,425.565 km
Eccentricity
0.00695
Inclination
99.3651°
RAAN
187.6024°
Arg. of periapsis
122.9206°
True anomaly
50.39335°
Mean anomaly
49.7814°
Eccentric anomaly
50.08703°
Mean motion
3.39195 °/min
Orbital period
106.13 mins
BSTAR
0.00045087
Loading maneuver chart data...
Computing Atmospheric mass density...

Documentation

Showing up to 5 results
|